sat.trackr.live / text

‹ back to catalog

STARLINK-36354

NORAD 67800 · 2026-032D

PAYLOAD ACTIVE UNKNOWN

§ Identity

Operator
Country
US
Launch date
2026-02-15
Launch site
AFWTR
Launch vehicle
Mass (kg)
RCS (m²)

Purposes: comms

External: N2YO · Heavens-Above · Gunter

§ Orbital elements

Epoch: 2026-05-25T01:44:04.971264Z

Period
93.91 min
Inclination
97.2862°
Eccentricity
0.0001808
Mean motion
15.33454906 rev/d
Perigee alt
464.3 km
Apogee alt
466.8 km
Semi-major
6,843.7 km
B*
3.6319e-4
RAAN
333.1234°
Arg perigee
85.7497°
Mean anomaly
274.3953°
Rev number
1,666

§ Raw data

STARLINK-363541 67800U 26032D   26145.07227976  .00011672  00000+0  36319-3 0  99932 67800  97.2862 333.1234 0001808  85.7497 274.3953 15.33454906 16665

JSON: /api/v1/satellites/67800 · /tle

For live sub-satellite position, see the globe view (requires WebGL).

§ Visibility from observer

Set your observer location to see the next 7 days of passes ≥ 10°. The values pass through the URL so the page stays shareable.

No JS? Fill the form by hand. The geolocation button needs JavaScript.